Weather in Gorokhovo

Russia / Kurgan Oblast     55°16′10″N   64°37′21″E
temp.,
°C
wind,
m/s
gust,
m/s
humid.,
%
clouds,
%
prec.,
mm/h
press.,
hPa
HPBL,
m
13 may, thu
thu1323:00+15ne335372 0.0 102628
02:00+13e115729 0.0 102610
05:00+13wsw2259100 0.0 102712
08:00+19w45456 0.0 1026329
11:00+24wnw573552 0.0 10251478
14:00+26nw68305 0.0 10242203
17:00+26nnw68285 0.0 10232272
20:00+22nw34455 0.0 102452
14 may, fri
fri1423:00+18n46545 0.0 102582
02:00+16ese34655 0.0 102647
05:00+15se11705 0.0 102711
08:00+21sse23515 0.0 1027302
11:00+25ssw33375 0.0 10271195
14:00+28wsw34295 0.0 10252691
17:00+29wsw45265 0.0 10242933
20:00+24sw22370 0.0 102312
15 may, sat
sat1523:00+20sw41145100 0.0 1023184
02:00+20sw61252100 0.6 1023185
05:00+17sw34625 0.8 102350
08:00+22wnw354899 0.3 1023217
11:00+27wnw56311 0.3 10231289
14:00+29wnw5627100 0.0 10212051
17:00+29wnw672719 0.0 10212616
20:00+25wsw47415 0.0 101998
16 may, sun
sun1623:00+21w47486 0.0 1019105
02:00+19wnw4105399 0.0 1019172
05:00+17wnw4661100 0.0 102087
08:00+22nw475162 0.0 1021297
11:00+28wnw453373 0.0 10201062
14:00+30wnw56255 0.0 10192067
17:00+30wnw56235 0.0 10182383
20:00+26w22365 0.0 101711
17 may, mon
mon1723:00+22w410425 0.0 1017149
02:00+20wnw34445 0.0 101751
05:00+18w335246 0.0 101724
08:00+24w34414 0.0 1017254
11:00+29wnw57270 0.0 10162101
14:00+30wnw57235 0.0 10153453
17:00+28wsw101029100 0.0 10141909
20:00+21se114893 3.3 101412